KB0UOA Weather Reports


time (UTC)temp
C
wind
direction
speed
KPH
gust
KPH
rain 1hr
cm
rain 24hr
cm
rain mn
cm
humidity
%
barometer
mb
20260505090704 13 61 9.7 33.8 0.00 0.28 0.18 68 1006.9
20260505090604 13 63 9.7 33.8 0.00 0.28 0.18 68 1006.9
20260505090504 13 62 9.7 33.8 0.00 0.28 0.18 68 1006.9
20260505090404 13 66 9.7 33.8 0.00 0.28 0.18 69 1007.0
20260505090305 13 69 9.7 27.4 0.00 0.28 0.18 69 1007.0
20260505090204 13 70 9.7 27.4 0.00 0.28 0.18 69 1007.1
20260505090104 13 68 11.3 27.4 0.00 0.28 0.18 68 1007.1
20260505090004 13 68 11.3 27.4 0.00 0.28 0.18 69 1007.2
20260505085905 13 68 11.3 27.4 0.00 0.28 0.18 68 1007.2
20260505085805 13 71 11.3 38.6 0.00 0.28 0.18 68 1007.2
20260505085705 13 72 11.3 38.6 0.00 0.28 0.18 68 1007.1
20260505085605 13 70 11.3 38.6 0.00 0.28 0.18 69 1007.1
20260505085505 13 71 11.3 38.6 0.00 0.28 0.18 69 1007.2
20260505085405 13 70 11.3 38.6 0.00 0.28 0.18 69 1007.1
20260505085105 13 66 11.3 38.6 0.00 0.28 0.18 69 1007.0
20260505085005 13 66 11.3 38.6 0.00 0.28 0.18 69 1007.1
20260505084905 13 65 11.3 38.6 0.00 0.28 0.18 70 1007.0
20260505084604 13 68 11.3 32.2 0.00 0.28 0.18 72 1007.0
20260505084304 13 61 9.7 32.2 0.00 0.28 0.18 73 1007.0
20260505084205 13 55 9.7 32.2 0.00 0.28 0.18 74 1007.0
20260505084105 13 54 8.0 32.2 0.00 0.28 0.18 74 1006.8
20260505084005 13 52 8.0 32.2 0.00 0.28 0.18 75 1006.9
20260505083805 13 56 8.0 32.2 0.00 0.28 0.18 75 1006.9
20260505083705 13 53 8.0 27.4 0.00 0.28 0.18 76 1006.9
20260505083605 13 47 8.0 27.4 0.00 0.28 0.18 75 1006.9
20260505083405 13 64 8.0 29.0 0.00 0.28 0.18 75 1006.7
20260505083305 13 68 8.0 29.0 0.00 0.28 0.18 75 1006.7
20260505083105 13 76 9.7 29.0 0.00 0.28 0.18 75 1006.6
20260505083005 13 77 9.7 29.0 0.00 0.28 0.18 74 1006.6
20260505082805 13 73 9.7 29.0 0.00 0.28 0.18 74 1006.6
20260505082705 13 72 9.7 29.0 0.00 0.28 0.18 74 1006.6
20260505082605 13 73 9.7 29.0 0.00 0.28 0.18 74 1006.6
20260505082505 13 72 9.7 29.0 0.00 0.28 0.18 73 1006.4
20260505082405 13 68 8.0 29.0 0.00 0.28 0.18 74 1006.4
20260505082305 14 66 9.7 29.0 0.00 0.28 0.18 75 1006.4
20260505082205 14 66 9.7 29.0 0.00 0.28 0.18 75 1006.4
20260505082105 14 62 8.0 29.0 0.00 0.28 0.18 74 1006.4
20260505082005 14 63 9.7 29.0 0.00 0.28 0.18 75 1006.4
20260505081805 14 65 8.0 32.2 0.00 0.28 0.18 75 1006.3
20260505081605 14 69 9.7 32.2 0.00 0.28 0.18 76 1006.3
20260505081505 14 70 11.3 32.2 0.00 0.28 0.18 76 1006.2
20260505081405 14 68 11.3 32.2 0.00 0.28 0.18 77 1006.1
20260505081305 14 66 11.3 32.2 0.00 0.28 0.18 77 1006.1
20260505081105 14 67 11.3 32.2 0.00 0.28 0.18 77 1005.9
20260505081005 14 66 11.3 32.2 0.00 0.28 0.18 77 1006.0
20260505080805 14 65 11.3 30.6 0.00 0.28 0.18 77 1005.8
20260505080705 14 67 11.3 30.6 0.00 0.28 0.18 77 1005.8
20260505080605 14 63 11.3 30.6 0.00 0.28 0.18 77 1005.8
20260505080505 14 61 9.7 30.6 0.00 0.28 0.18 77 1005.9
20260505080405 15 61 9.7 30.6 0.00 0.28 0.18 77 1005.8
20260505080305 15 62 8.0 30.6 0.00 0.28 0.18 78 1005.9
20260505080205 15 55 8.0 30.6 0.00 0.28 0.18 78 1005.9
20260505080105 15 55 8.0 30.6 0.00 0.28 0.18 79 1006.0
20260505080005 15 52 8.0 25.7 0.00 0.28 0.18 80 1006.0
20260505075905 15 50 8.0 25.7 0.00 0.28 0.18 80 1006.1
20260505075804 15 48 8.0 25.7 0.00 0.28 0.18 80 1006.1
20260505075704 15 41 8.0 25.7 0.00 0.28 0.18 81 1006.1
20260505075604 15 37 8.0 25.7 0.00 0.28 0.18 82 1006.0
20260505075404 15 38 8.0 25.7 0.00 0.28 0.18 82 1006.0
20260505075104 15 37 8.0 20.9 0.00 0.28 0.18 82 1005.9
20260505075004 15 35 6.4 20.9 0.00 0.28 0.18 83 1006.0
20260505074905 15 36 8.0 20.9 0.00 0.28 0.18 82 1005.8
20260505074805 15 36 8.0 20.9 0.00 0.28 0.18 82 1005.9
20260505074705 15 36 6.4 20.9 0.00 0.28 0.18 82 1005.8
20260505074605 15 39 8.0 20.9 0.00 0.28 0.18 82 1005.8
20260505074405 15 43 8.0 20.9 0.00 0.28 0.18 82 1005.8
20260505074305 15 42 8.0 20.9 0.00 0.28 0.18 82 1005.8
20260505074205 15 47 8.0 25.7 0.00 0.28 0.18 82 1005.7
20260505074104 15 47 8.0 25.7 0.00 0.28 0.18 82 1005.7
20260505073904 15 48 8.0 25.7 0.00 0.28 0.18 82 1005.8
20260505073605 15 48 6.4 25.7 0.00 0.28 0.18 82 1005.7
20260505073505 15 48 6.4 25.7 0.00 0.28 0.18 82 1005.8
20260505073405 15 46 6.4 25.7 0.00 0.28 0.18 82 1005.8
20260505073305 15 47 6.4 25.7 0.00 0.28 0.18 82 1005.8
20260505073205 15 44 6.4 17.7 0.00 0.28 0.18 83 1005.7
20260505073105 15 41 6.4 17.7 0.00 0.28 0.18 83 1005.8
20260505072905 15 45 6.4 17.7 0.00 0.28 0.18 82 1005.8
20260505072804 15 47 6.4 24.1 0.00 0.28 0.18 83 1005.8
20260505072704 15 46 6.4 24.1 0.03 0.28 0.18 83 1005.8
20260505072604 15 43 6.4 24.1 0.03 0.28 0.18 83 1005.8
20260505072504 15 40 6.4 24.1 0.03 0.28 0.18 83 1005.8
20260505072404 15 43 6.4 24.1 0.03 0.28 0.18 83 1005.7
20260505072305 15 44 6.4 24.1 0.03 0.28 0.18 83 1005.7
20260505072104 15 47 6.4 24.1 0.03 0.28 0.18 83 1005.6
20260505072005 15 46 6.4 24.1 0.03 0.28 0.18 84 1005.6
20260505071904 15 48 6.4 24.1 0.03 0.28 0.18 84 1005.5
20260505071804 15 50 6.4 24.1 0.03 0.28 0.18 84 1005.5
20260505071704 15 53 6.4 17.7 0.03 0.28 0.18 84 1005.5
20260505071604 15 57 6.4 17.7 0.03 0.28 0.18 84 1005.5
20260505071504 15 65 4.8 17.7 0.03 0.28 0.18 85 1005.5
20260505071204 15 68 4.8 17.7 0.03 0.28 0.18 86 1005.6
20260505071104 15 69 4.8 17.7 0.03 0.28 0.18 86 1005.5
20260505071004 15 68 4.8 17.7 0.03 0.28 0.18 86 1005.5
20260505070904 15 67 4.8 17.7 0.03 0.28 0.18 86 1005.6
20260505070804 15 67 4.8 17.7 0.03 0.28 0.18 86 1005.5
20260505070704 15 62 4.8 17.7 0.03 0.28 0.18 86 1005.5
20260505070604 15 57 4.8 16.1 0.03 0.28 0.18 86 1005.5
20260505070504 15 51 4.8 14.5 0.03 0.28 0.18 87 1005.5
20260505070404 15 50 4.8 14.5 0.03 0.28 0.18 87 1005.5
20260505070304 15 48 3.2 12.9 0.03 0.28 0.18 87 1005.5
20260505070204 15 48 3.2 12.9 0.03 0.28 0.18 87 1005.5
20260505070104 15 51 4.8 12.9 0.03 0.28 0.18 87 1005.5
20260505070005 15 48 4.8 14.5 0.03 0.28 0.18 87 1005.7
20260505065905 15 46 4.8 14.5 0.03 0.28 0.18 87 1005.7
20260505065805 15 42 4.8 16.1 0.03 0.28 0.18 87 1005.7
20260505065705 15 46 4.8 16.1 0.03 0.28 0.18 87 1005.7
20260505065505 15 39 6.4 27.4 0.03 0.28 0.18 87 1005.8
20260505065405 15 39 8.0 27.4 0.03 0.28 0.18 87 1005.7
20260505065305 15 33 8.0 27.4 0.03 0.28 0.18 86 1005.7
20260505065205 15 25 8.0 27.4 0.03 0.28 0.18 86 1005.6
20260505065105 15 18 8.0 27.4 0.03 0.28 0.18 86 1005.5
20260505065004 15 14 8.0 27.4 0.03 0.28 0.18 86 1005.6
20260505064904 15 16 8.0 27.4 0.03 0.28 0.18 85 1005.6
20260505064805 15 17 8.0 27.4 0.03 0.28 0.18 85 1005.5
20260505064705 15 18 8.0 27.4 0.03 0.28 0.18 84 1005.6
20260505064604 15 20 6.4 27.4 0.03 0.28 0.18 84 1005.6
20260505064504 16 21 6.4 20.9 0.03 0.28 0.18 83 1005.5
20260505064404 16 25 6.4 16.1 0.03 0.28 0.18 83 1005.6
20260505064305 16 37 4.8 16.1 0.03 0.28 0.18 83 1005.6
20260505064204 16 54 4.8 16.1 0.03 0.28 0.18 83 1005.6
20260505064104 16 68 4.8 16.1 0.03 0.28 0.18 82 1005.6
20260505064004 16 80 4.8 16.1 0.03 0.28 0.18 82 1005.6
20260505063904 16 86 4.8 16.1 0.03 0.28 0.18 81 1005.5
20260505063804 16 90 4.8 16.1 0.03 0.28 0.18 81 1005.4
20260505063704 16 91 4.8 16.1 0.03 0.28 0.18 80 1005.4
20260505063604 16 104 4.8 16.1 0.03 0.28 0.18 80 1005.3
20260505063504 16 114 4.8 16.1 0.03 0.28 0.18 80 1005.3
20260505063404 17 127 4.8 11.3 0.03 0.28 0.18 80 1005.3
20260505063004 17 234 6.4 19.3 0.03 0.28 0.18 79 1005.2
20260505062904 17 249 6.4 19.3 0.03 0.28 0.18 78 1005.4
20260505062805 17 264 6.4 19.3 0.03 0.28 0.18 78 1005.5
20260505062705 17 269 6.4 19.3 0.00 0.25 0.15 76 1005.8
20260505062605 17 282 8.0 19.3 0.00 0.25 0.15 76 1006.1
20260505062505 17 291 8.0 19.3 0.00 0.25 0.15 75 1006.3
20260505062405 18 296 6.4 19.3 0.00 0.25 0.15 76 1006.5
20260505062304 18 305 4.8 19.3 0.00 0.25 0.15 82 1006.3
20260505062204 18 309 4.8 17.7 0.00 0.25 0.15 82 1006.3
20260505062105 18 316 4.8 17.7 0.00 0.25 0.15 84 1006.2
20260505062005 19 320 3.2 12.9 0.00 0.25 0.15 85 1006.0
20260505061905 19 326 3.2 12.9 0.00 0.25 0.15 86 1005.8
20260505061805 19 336 3.2 12.9 0.00 0.25 0.15 86 1005.7
20260505061705 19 356 3.2 12.9 0.00 0.25 0.15 86 1005.5
20260505061605 19 53 1.6 12.9 0.00 0.25 0.15 85 1005.2
20260505061505 19 90 1.6 12.9 0.00 0.25 0.15 86 1005.1
20260505061305 19 92 3.2 17.7 0.00 0.25 0.15 86 1004.8
20260505061205 19 91 3.2 17.7 0.00 0.25 0.15 85 1004.6
20260505061105 19 89 3.2 17.7 0.00 0.25 0.15 85 1004.5
20260505061005 19 89 3.2 17.7 0.00 0.25 0.15 85 1004.5
20260505060905 19 88 3.2 17.7 0.00 0.25 0.15 85 1004.5
20260505060805 19 87 3.2 17.7 0.00 0.25 0.15 85 1004.5
20260505060705 19 88 3.2 17.7 0.03 0.25 0.15 86 1004.5
20260505060404 19 90 3.2 17.7 0.08 0.25 0.15 85 1004.5
20260505060305 19 92 1.6 11.3 0.13 0.25 0.15 85 1004.6
20260505060204 19 94 1.6 9.7 0.13 0.25 0.15 86 1004.6
20260505060104 19 99 1.6 6.4 0.13 0.25 0.15 86 1004.6
20260505055904 19 102 1.6 6.4 0.18 0.25 0.15 86 1004.7
20260505055804 19 109 1.6 4.8 0.18 0.25 0.15 86 1004.6
20260505055704 19 105 1.6 9.7 0.23 0.25 0.15 86 1004.6
20260505055405 19 96 1.6 9.7 0.25 0.25 0.15 85 1004.8
20260505055205 19 95 1.6 9.7 0.25 0.25 0.15 85 1004.7
20260505055105 19 94 1.6 9.7 0.25 0.25 0.15 85 1004.7
20260505055005 19 92 3.2 9.7 0.25 0.25 0.15 85 1004.6
20260505054905 19 90 3.2 16.1 0.25 0.25 0.15 85 1004.4
20260505054805 19 89 3.2 16.1 0.25 0.25 0.15 85 1004.4
20260505054604 19 87 3.2 16.1 0.25 0.25 0.15 85 1004.3
20260505054504 19 88 3.2 16.1 0.25 0.25 0.15 86 1004.3
20260505054405 19 86 3.2 16.1 0.25 0.25 0.15 86 1004.3
20260505054304 19 82 3.2 16.1 0.25 0.25 0.15 86 1004.3
20260505054105 19 76 3.2 16.1 0.25 0.25 0.15 86 1004.4
20260505054004 19 75 3.2 16.1 0.25 0.25 0.15 86 1004.4
20260505053904 19 74 3.2 9.7 0.25 0.25 0.15 87 1004.4
20260505053704 19 67 3.2 9.7 0.25 0.25 0.15 87 1004.5
20260505053605 19 64 3.2 9.7 0.25 0.25 0.15 87 1004.5
20260505053505 19 63 3.2 9.7 0.25 0.25 0.15 87 1004.6
20260505053404 19 59 3.2 9.7 0.25 0.25 0.15 87 1004.7
20260505053204 19 55 3.2 9.7 0.25 0.25 0.15 87 1004.7
20260505053005 19 54 3.2 9.7 0.25 0.25 0.15 87 1004.8
20260505052905 19 51 3.2 9.7 0.25 0.25 0.15 87 1004.7
20260505052804 19 50 1.6 9.7 0.25 0.25 0.15 87 1004.7
20260505052604 19 43 1.6 9.7 0.25 0.25 0.15 87 1004.6
20260505052405 19 58 1.6 9.7 0.25 0.25 0.15 87 1004.4
20260505052305 19 82 1.6 4.8 0.25 0.25 0.15 87 1004.3
20260505052204 19 101 1.6 4.8 0.25 0.25 0.15 87 1004.1
20260505052005 19 120 1.6 8.0 0.25 0.25 0.15 86 1004.0
20260505051904 19 126 1.6 8.0 0.25 0.25 0.15 86 1004.1
20260505051804 19 133 1.6 8.0 0.25 0.25 0.15 86 1004.0
20260505051704 20 133 1.6 8.0 0.25 0.25 0.15 86 1004.0
20260505051604 20 133 1.6 8.0 0.25 0.25 0.15 86 1003.9
20260505051505 20 134 1.6 8.0 0.25 0.25 0.15 85 1003.9
20260505051404 20 135 1.6 8.0 0.25 0.25 0.15 85 1003.9
20260505051304 20 137 1.6 8.0 0.25 0.25 0.15 85 1004.0
20260505051105 20 142 0.0 8.0 0.25 0.25 0.15 84 1004.0
20260505051004 20 149 0.0 4.8 0.25 0.25 0.15 83 1004.0
20260505050904 20 147 0.0 4.8 0.25 0.25 0.15 83 1004.0
20260505050804 20 129 0.0 1.6 0.23 0.23 0.13 83 1004.0
20260505050705 20 129 0.0 1.6 0.23 0.23 0.13 82 1004.1
20260505050605 20 128 0.0 1.6 0.20 0.20 0.10 82 1004.2
20260505050504 20 128 0.0 1.6 0.18 0.18 0.08 81 1004.2
20260505050404 21 127 0.0 1.6 0.15 0.15 0.05 79 1004.2
20260505050305 21 126 0.0 1.6 0.13 0.13 0.03 79 1004.3
20260505050204 21 125 0.0 1.6 0.13 0.13 0.03 78 1004.4
20260505050104 21 124 0.0 1.6 0.10 0.10 0.00 78 1004.5
20260505041704 22 115 0.0 3.2 0.00 0.00 0.00 69 1003.7
20260505041604 22 115 1.6 3.2 0.00 0.00 0.00 68 1003.6
20260505041504 22 115 1.6 3.2 0.00 0.00 0.00 69 1003.8
20260505041404 22 115 1.6 3.2 0.00 0.00 0.00 69 1003.7
20260505041304 22 115 1.6 3.2 0.00 0.00 0.00 69 1003.7
20260505041204 22 120 1.6 3.2 0.00 0.00 0.00 69 1003.7
20260505041104 22 136 0.0 4.8 0.00 0.00 0.00 69 1003.7
20260505040904 22 143 0.0 4.8 0.00 0.00 0.00 68 1003.7
20260505040804 22 148 0.0 4.8 0.00 0.00 0.00 68 1003.7
20260505040704 22 147 0.0 4.8 0.00 0.00 0.00 68 1003.7
20260505040504 22 159 0.0 4.8 0.00 0.00 0.00 68 1003.7
20260505040404 22 159 0.0 4.8 0.00 0.00 0.00 68 1003.8
20260505040304 22 159 0.0 4.8 0.00 0.00 0.00 68 1003.8
20260505040204 22 148 0.0 4.8 0.00 0.00 0.00 68 1003.8
20260505040104 22 131 0.0 1.6 0.00 0.00 0.00 68 1003.7
20260505040005 22 128 0.0 3.2 0.00 0.00 0.00 68 1003.8
20260505035904 22 122 0.0 3.2 0.00 0.00 0.00 68 1003.7
20260505035705 22 116 1.6 4.8 0.00 0.00 0.00 68 1003.8
20260505035605 22 116 1.6 4.8 0.00 0.00 0.00 68 1003.7
20260505035505 22 118 1.6 4.8 0.00 0.00 0.00 68 1003.8
20260505035405 22 108 1.6 11.3 0.00 0.00 0.00 68 1003.7
20260505035304 22 109 1.6 11.3 0.00 0.00 0.00 67 1003.7
20260505035204 22 109 1.6 11.3 0.00 0.00 0.00 67 1003.7
20260505035004 22 110 1.6 11.3 0.00 0.00 0.00 67 1003.6
20260505034904 22 110 1.6 11.3 0.00 0.00 0.00 67 1003.6
20260505034805 22 110 1.6 11.3 0.00 0.00 0.00 67 1003.7
20260505034705 22 108 1.6 11.3 0.00 0.00 0.00 67 1003.7
20260505034604 22 106 1.6 12.9 0.00 0.00 0.00 67 1003.7
20260505034504 22 105 1.6 12.9 0.00 0.00 0.00 67 1003.6
20260505034404 22 109 1.6 12.9 0.00 0.00 0.00 66 1003.6
20260505034204 22 108 1.6 12.9 0.00 0.00 0.00 66 1003.6
20260505034104 22 108 1.6 12.9 0.00 0.00 0.00 66 1003.6
20260505034005 22 108 3.2 12.9 0.00 0.00 0.00 66 1003.6
20260505033905 22 110 3.2 12.9 0.00 0.00 0.00 66 1003.6
20260505033805 22 110 3.2 12.9 0.00 0.00 0.00 66 1003.6
20260505033705 22 112 1.6 12.9 0.00 0.00 0.00 66 1003.7
20260505033604 22 115 1.6 8.0 0.00 0.00 0.00 66 1003.7
20260505033504 22 113 1.6 8.0 0.00 0.00 0.00 66 1003.7
20260505033404 22 115 1.6 6.4 0.00 0.00 0.00 66 1003.7
20260505033304 22 118 1.6 6.4 0.00 0.00 0.00 65 1003.7
20260505033204 22 119 1.6 6.4 0.00 0.00 0.00 65 1003.7
20260505033104 22 119 1.6 6.4 0.00 0.00 0.00 65 1003.8
20260505032905 22 118 1.6 6.4 0.00 0.00 0.00 65 1003.8
20260505032805 22 119 3.2 6.4 0.00 0.00 0.00 65 1003.8
20260505032705 22 119 3.2 6.4 0.00 0.00 0.00 65 1003.9
20260505032605 23 118 3.2 12.9 0.00 0.00 0.00 65 1003.9
20260505032504 23 121 3.2 12.9 0.00 0.00 0.00 65 1003.9
20260505032404 23 120 3.2 12.9 0.00 0.00 0.00 65 1003.9
20260505032305 23 120 3.2 12.9 0.00 0.00 0.00 65 1004.0
20260505032205 23 120 3.2 12.9 0.00 0.00 0.00 65 1004.1
20260505032105 23 121 3.2 12.9 0.00 0.00 0.00 64 1004.1
20260505032004 23 121 3.2 12.9 0.00 0.00 0.00 64 1004.1
20260505031904 23 120 3.2 12.9 0.00 0.00 0.00 64 1004.0
20260505031804 23 118 3.2 12.9 0.00 0.00 0.00 64 1003.9
20260505031704 23 115 3.2 14.5 0.00 0.00 0.00 64 1004.0
20260505031505 23 113 3.2 14.5 0.00 0.00 0.00 64 1004.0
20260505031405 23 113 3.2 14.5 0.00 0.00 0.00 64 1003.9
20260505031305 23 113 3.2 14.5 0.00 0.00 0.00 64 1003.8
20260505031204 23 112 3.2 14.5 0.00 0.00 0.00 64 1003.8
20260505031105 23 110 3.2 14.5 0.00 0.00 0.00 64 1003.7
20260505031004 23 111 3.2 14.5 0.00 0.00 0.00 64 1003.7
20260505030904 23 111 3.2 14.5 0.00 0.00 0.00 64 1003.7
20260505030804 23 110 3.2 14.5 0.00 0.00 0.00 64 1003.8
20260505030604 23 108 3.2 14.5 0.00 0.00 0.00 63 1003.8
20260505030505 23 107 4.8 14.5 0.00 0.00 0.00 63 1003.8
20260505030305 23 106 3.2 14.5 0.00 0.00 0.00 63 1003.8
20260505030004 23 105 3.2 14.5 0.00 0.00 0.00 63 1003.7
20260505025904 23 104 3.2 14.5 0.00 0.00 0.00 63 1003.7
20260505025804 23 105 3.2 14.5 0.00 0.00 0.00 63 1003.8
20260505025604 23 111 3.2 8.0 0.00 0.00 0.00 63 1003.8
20260505025504 23 114 1.6 8.0 0.00 0.00 0.00 62 1003.8
20260505025404 23 115 3.2 8.0 0.00 0.00 0.00 62 1003.8
20260505025305 23 117 3.2 8.0 0.00 0.00 0.00 62 1003.8
20260505025204 23 117 3.2 8.0 0.00 0.00 0.00 62 1003.9
20260505025004 23 121 3.2 8.0 0.00 0.00 0.00 62 1003.9
20260505024904 23 123 3.2 6.4 0.00 0.00 0.00 62 1003.9
20260505024804 23 122 3.2 6.4 0.00 0.00 0.00 62 1003.8
20260505024704 23 122 3.2 6.4 0.00 0.00 0.00 62 1003.8
20260505024604 23 122 3.2 6.4 0.00 0.00 0.00 62 1003.9
20260505024504 23 122 3.2 6.4 0.00 0.00 0.00 62 1003.8
20260505024404 23 121 3.2 6.4 0.00 0.00 0.00 61 1003.8
20260505024304 23 120 3.2 6.4 0.00 0.00 0.00 61 1003.8
20260505024204 23 121 3.2 6.4 0.00 0.00 0.00 61 1003.7
20260505024104 23 123 3.2 6.4 0.00 0.00 0.00 61 1003.7
20260505024004 23 122 3.2 6.4 0.00 0.00 0.00 61 1003.6
20260505023904 23 123 3.2 6.4 0.00 0.00 0.00 61 1003.6
20260505023704 23 124 3.2 6.4 0.00 0.00 0.00 61 1003.5
20260505023604 23 126 3.2 6.4 0.00 0.00 0.00 61 1003.5
20260505023504 23 127 3.2 6.4 0.00 0.00 0.00 61 1003.5
20260505023404 23 128 3.2 6.4 0.00 0.00 0.00 61 1003.4
20260505023304 23 129 3.2 4.8 0.00 0.00 0.00 61 1003.4
20260505023204 23 130 1.6 4.8 0.00 0.00 0.00 61 1003.5
20260505023004 23 129 1.6 4.8 0.00 0.00 0.00 61 1003.5
20260505022904 23 129 1.6 4.8 0.00 0.00 0.00 61 1003.5
20260505022804 23 129 1.6 4.8 0.00 0.00 0.00 61 1003.5
20260505022604 23 130 1.6 6.4 0.00 0.00 0.00 60 1003.5
20260505022404 23 130 1.6 6.4 0.00 0.00 0.00 60 1003.6
20260505022204 23 127 1.6 6.4 0.00 0.00 0.00 60 1003.6
20260505022104 23 126 1.6 6.4 0.00 0.00 0.00 60 1003.6
20260505022004 23 127 3.2 6.4 0.00 0.00 0.00 60 1003.5
20260505021904 23 128 3.2 6.4 0.00 0.00 0.00 59 1003.6
20260505021804 23 129 3.2 6.4 0.00 0.00 0.00 59 1003.6
20260505021704 23 129 3.2 6.4 0.00 0.00 0.00 59 1003.5
20260505021604 23 132 3.2 12.9 0.00 0.00 0.00 59 1003.5
20260505021504 23 132 3.2 12.9 0.00 0.00 0.00 59 1003.5
20260505021104 23 140 3.2 12.9 0.00 0.00 0.00 59 1003.6
20260505021004 23 147 3.2 12.9 0.00 0.00 0.00 59 1003.6
20260505020904 23 150 3.2 12.9 0.00 0.00 0.00 59 1003.7
20260505020804 23 152 1.6 12.9 0.00 0.00 0.00 59 1003.7
20260505020704 23 154 1.6 12.9 0.00 0.00 0.00 59 1003.8
20260505020604 23 153 1.6 8.0 0.00 0.00 0.00 59 1003.8
20260505020504 23 157 3.2 8.0 0.00 0.00 0.00 59 1003.8
20260505020404 23 162 3.2 8.0 0.00 0.00 0.00 59 1003.9
20260505020304 23 167 3.2 12.9 0.00 0.00 0.00 58 1003.9
20260505020104 23 171 3.2 12.9 0.00 0.00 0.00 58 1004.0
20260505020004 23 169 3.2 12.9 0.00 0.00 0.00 58 1003.9
20260505015904 23 168 3.2 12.9 0.00 0.00 0.00 58 1003.9
20260505015804 23 168 3.2 12.9 0.00 0.00 0.00 58 1003.9
20260505015704 23 166 3.2 12.9 0.00 0.00 0.00 58 1003.9
20260505015604 23 167 3.2 12.9 0.00 0.00 0.00 58 1003.9
20260505015404 23 165 3.2 12.9 0.00 0.00 0.00 57 1003.8
20260505015304 23 167 3.2 14.5 0.00 0.00 0.00 57 1003.8
20260505015105 23 163 3.2 14.5 0.00 0.00 0.00 57 1003.7
20260505015005 23 159 3.2 14.5 0.00 0.00 0.00 57 1003.7
20260505014904 23 155 3.2 14.5 0.00 0.00 0.00 57 1003.6
20260505014804 24 154 3.2 14.5 0.00 0.00 0.00 57 1003.6
20260505014704 24 154 3.2 14.5 0.00 0.00 0.00 57 1003.5
20260505014404 24 144 1.6 14.5 0.00 0.00 0.00 56 1003.3
20260505014304 24 139 1.6 8.0 0.00 0.00 0.00 56 1003.2
20260505014204 24 143 3.2 8.0 0.00 0.00 0.00 56 1003.1
20260505014104 24 145 3.2 8.0 0.00 0.00 0.00 56 1003.2
20260505014004 24 151 3.2 8.0 0.00 0.00 0.00 56 1003.2
20260505013904 24 154 3.2 8.0 0.00 0.00 0.00 56 1003.3
20260505013804 24 151 3.2 8.0 0.00 0.00 0.00 55 1003.4
20260505013704 24 152 3.2 9.7 0.00 0.00 0.00 55 1003.4
20260505013604 24 152 3.2 9.7 0.00 0.00 0.00 55 1003.4
20260505013504 24 151 3.2 9.7 0.00 0.00 0.00 55 1003.3
20260505013404 24 152 1.6 9.7 0.00 0.00 0.00 55 1003.3
20260505013204 24 141 1.6 9.7 0.00 0.00 0.00 55 1003.2
20260505013004 24 136 1.6 9.7 0.00 0.00 0.00 55 1003.0
20260505012904 24 137 1.6 9.7 0.00 0.00 0.00 54 1003.0
20260505012804 24 142 1.6 9.7 0.00 0.00 0.00 55 1003.0
20260505012704 24 141 3.2 8.0 0.00 0.00 0.00 54 1003.1
20260505012604 24 143 1.6 8.0 0.00 0.00 0.00 54 1003.0
20260505012504 24 144 3.2 8.0 0.00 0.00 0.00 54 1003.0
20260505012404 24 141 3.2 8.0 0.00 0.00 0.00 54 1003.0
20260505012304 24 142 3.2 8.0 0.00 0.00 0.00 54 1003.0
20260505012204 24 142 3.2 8.0 0.00 0.00 0.00 54 1003.0
20260505012105 24 142 3.2 8.0 0.00 0.00 0.00 54 1002.9
20260505012005 24 143 3.2 8.0 0.00 0.00 0.00 54 1002.7
20260505011905 24 146 3.2 12.9 0.00 0.00 0.00 53 1002.7
20260505011805 24 149 3.2 12.9 0.00 0.00 0.00 53 1002.7
20260505011705 24 150 3.2 12.9 0.00 0.00 0.00 53 1002.7
20260505011605 24 151 3.2 12.9 0.00 0.00 0.00 53 1002.7
20260505011506 24 151 3.2 12.9 0.00 0.00 0.00 53 1002.7
20260505011404 25 153 3.2 12.9 0.00 0.00 0.00 53 1002.7
20260505011305 25 151 3.2 12.9 0.00 0.00 0.00 53 1002.7
20260505011205 25 150 3.2 12.9 0.00 0.00 0.00 53 1002.7
20260505011105 25 150 3.2 12.9 0.00 0.00 0.00 53 1002.8
20260505011005 25 148 3.2 12.9 0.00 0.00 0.00 53 1002.7
20260505010905 25 145 3.2 11.3 0.00 0.00 0.00 53 1002.6
20260505010705 25 145 3.2 11.3 0.00 0.00 0.00 52 1002.6
20260505010605 25 147 3.2 11.3 0.00 0.00 0.00 52 1002.7
20260505010505 25 146 3.2 11.3 0.00 0.00 0.00 52 1002.6
20260505010305 25 145 3.2 11.3 0.00 0.00 0.00 52 1002.5
20260505010205 25 149 3.2 11.3 0.00 0.00 0.00 52 1002.5
20260505010105 25 146 3.2 11.3 0.00 0.00 0.00 52 1002.5
20260505010005 25 145 3.2 11.3 0.00 0.00 0.00 52 1002.5
20260505005905 25 146 3.2 11.3 0.00 0.00 0.00 52 1002.5
20260505005705 25 142 3.2 9.7 0.00 0.00 0.00 51 1002.5
20260505005605 25 137 3.2 9.7 0.00 0.00 0.00 51 1002.5
20260505005505 25 137 3.2 9.7 0.00 0.00 0.00 51 1002.5
20260505005405 25 138 3.2 9.7 0.00 0.00 0.00 51 1002.4
20260505005305 25 136 3.2 9.7 0.00 0.00 0.00 51 1002.5
20260505005104 25 132 3.2 9.7 0.00 0.00 0.00 51 1002.5
20260505005005 25 130 3.2 9.7 0.00 0.00 0.00 51 1002.5
20260505004905 25 129 3.2 9.7 0.00 0.00 0.00 51 1002.6
20260505004805 25 129 3.2 9.7 0.00 0.00 0.00 51 1002.5
20260505004705 25 129 3.2 8.0 0.00 0.00 0.00 50 1002.5
20260505004305 25 129 3.2 8.0 0.00 0.00 0.00 50 1002.6
20260505004004 25 137 3.2 11.3 0.00 0.00 0.00 50 1002.7
20260505003905 25 135 3.2 11.3 0.00 0.00 0.00 49 1002.7
20260505003804 25 138 3.2 11.3 0.00 0.00 0.00 49 1002.6
20260505003705 25 138 3.2 11.3 0.00 0.00 0.00 49 1002.6
20260505003605 25 139 3.2 11.3 0.00 0.00 0.00 49 1002.7
20260505003505 25 140 3.2 11.3 0.00 0.00 0.00 48 1002.7
20260505003404 25 144 3.2 11.3 0.00 0.00 0.00 48 1002.6
20260505003205 25 149 4.8 11.3 0.00 0.00 0.00 48 1002.6
20260505003105 25 155 4.8 11.3 0.00 0.00 0.00 48 1002.5
20260505003004 25 154 3.2 11.3 0.00 0.00 0.00 48 1002.6
20260505002805 26 154 3.2 11.3 0.00 0.00 0.00 47 1002.5
20260505002704 26 155 3.2 11.3 0.00 0.00 0.00 47 1002.5
20260505002605 26 158 3.2 11.3 0.00 0.00 0.00 48 1002.6
20260505002505 26 157 3.2 11.3 0.00 0.00 0.00 47 1002.6
20260505002405 26 155 3.2 11.3 0.00 0.00 0.00 47 1002.7
20260505002305 26 156 3.2 11.3 0.00 0.00 0.00 47 1002.6
20260505002205 26 154 3.2 11.3 0.00 0.00 0.00 47 1002.7
20260505002105 26 149 3.2 11.3 0.00 0.00 0.00 47 1002.7
20260505002005 26 152 3.2 12.9 0.00 0.00 0.00 47 1002.8
20260505001905 26 151 3.2 12.9 0.00 0.00 0.00 47 1002.8
20260505001804 26 150 3.2 12.9 0.00 0.00 0.00 47 1002.8
20260505001704 26 150 3.2 12.9 0.00 0.00 0.00 46 1002.8
20260505001504 26 148 3.2 12.9 0.00 0.00 0.00 47 1002.9
20260505001304 26 152 3.2 12.9 0.00 0.00 0.00 46 1002.9
20260505001005 26 147 3.2 11.3 0.00 0.00 0.00 46 1002.8
20260505000805 26 147 3.2 8.0 0.00 0.00 0.00 46 1002.9
20260505000705 26 145 3.2 9.7 0.00 0.00 0.00 46 1002.9
20260505000605 26 145 3.2 9.7 0.00 0.00 0.00 46 1003.0
20260505000504 26 144 3.2 9.7 0.00 0.00 0.00 46 1003.0
20260505000406 26 143 3.2 9.7 0.00 0.00 0.00 46 1003.0
20260505000305 26 138 3.2 9.7 0.00 0.00 0.00 46 1003.0
20260505000104 26 138 3.2 9.7 0.00 0.00 0.00 46 1003.0
20260504235804 26 144 3.2 9.7 0.00 0.00 0.00 46 1003.1
20260504235705 26 148 3.2 8.0 0.00 0.00 0.00 46 1003.1
20260504235605 26 150 3.2 8.0 0.00 0.00 0.00 46 1003.1
20260504235505 26 151 3.2 8.0 0.00 0.00 0.00 46 1003.1
20260504235405 26 155 3.2 12.9 0.00 0.00 0.00 46 1003.1
20260504235305 26 158 3.2 12.9 0.00 0.00 0.00 46 1003.1
20260504235205 26 154 3.2 12.9 0.00 0.00 0.00 46 1003.1
20260504235105 26 153 3.2 12.9 0.00 0.00 0.00 46 1003.1
20260504235005 26 151 3.2 12.9 0.00 0.00 0.00 46 1003.1
20260504234905 26 152 4.8 12.9 0.00 0.00 0.00 46 1003.2
20260504234805 26 152 4.8 12.9 0.00 0.00 0.00 46 1003.1
20260504234605 26 158 4.8 12.9 0.00 0.00 0.00 46 1003.1
20260504234505 26 161 4.8 16.1 0.00 0.00 0.00 46 1003.1
20260504234305 26 156 6.4 16.1 0.00 0.00 0.00 45 1003.1
20260504234205 26 160 6.4 16.1 0.00 0.00 0.00 46 1003.2
20260504234005 26 167 6.4 16.1 0.00 0.00 0.00 45 1003.2
20260504233705 26 165 6.4 16.1 0.00 0.00 0.00 45 1003.2
20260504233605 26 162 6.4 16.1 0.00 0.00 0.00 45 1003.1
20260504233505 26 160 6.4 16.1 0.00 0.00 0.00 46 1003.2
20260504233405 26 160 6.4 16.1 0.00 0.00 0.00 45 1003.1
20260504233305 26 162 6.4 16.1 0.00 0.00 0.00 45 1003.1
20260504233205 26 164 6.4 16.1 0.00 0.00 0.00 45 1003.1
20260504233105 26 164 6.4 16.1 0.00 0.00 0.00 45 1003.1
20260504233005 26 161 4.8 16.1 0.00 0.00 0.00 45 1003.1
20260504232905 26 160 4.8 16.1 0.00 0.00 0.00 45 1003.1
20260504232805 26 165 4.8 17.7 0.00 0.00 0.00 45 1003.2
20260504232605 26 170 4.8 17.7 0.00 0.00 0.00 45 1003.1
20260504232505 27 169 4.8 17.7 0.00 0.00 0.00 45 1003.1
20260504232405 27 169 6.4 17.7 0.00 0.00 0.00 45 1003.1
20260504232305 27 170 4.8 17.7 0.00 0.00 0.00 45 1003.1
20260504232205 27 170 4.8 17.7 0.00 0.00 0.00 46 1003.1
20260504232105 27 170 4.8 17.7 0.00 0.00 0.00 46 1003.1
20260504232005 27 168 6.4 17.7 0.00 0.00 0.00 45 1003.1
20260504231905 27 168 4.8 17.7 0.00 0.00 0.00 45 1003.2
20260504231805 27 164 4.8 14.5 0.00 0.00 0.00 45 1003.1
20260504231705 27 161 4.8 14.5 0.00 0.00 0.00 45 1003.1
20260504231605 27 158 4.8 14.5 0.00 0.00 0.00 45 1003.1
20260504231505 27 160 4.8 14.5 0.00 0.00 0.00 45 1003.1
20260504231405 27 158 4.8 14.5 0.00 0.00 0.00 44 1003.0
20260504231305 27 154 4.8 14.5 0.00 0.00 0.00 45 1003.0
20260504231105 27 153 4.8 16.1 0.00 0.00 0.00 45 1003.0
20260504231005 27 154 4.8 16.1 0.00 0.00 0.00 45 1003.0
20260504230905 27 158 4.8 22.5 0.00 0.00 0.00 45 1003.0
20260504230805 27 160 4.8 22.5 0.00 0.00 0.00 44 1003.0
20260504230704 27 159 4.8 22.5 0.00 0.00 0.00 44 1002.9
20260504230605 27 164 6.4 22.5 0.00 0.00 0.00 45 1003.0
20260504230404 27 167 6.4 22.5 0.00 0.00 0.00 45 1002.9
20260504230204 27 167 6.4 22.5 0.00 0.00 0.00 45 1002.9
20260504230005 27 167 6.4 22.5 0.00 0.00 0.00 44 1002.9
20260504225905 27 166 6.4 16.1 0.00 0.00 0.00 44 1002.9
20260504225805 27 167 6.4 16.1 0.00 0.00 0.00 44 1002.9
20260504225705 27 169 8.0 16.1 0.00 0.00 0.00 44 1003.0
20260504225604 27 171 8.0 16.1 0.00 0.00 0.00 43 1003.0
20260504225504 27 176 6.4 17.7 0.00 0.00 0.00 43 1003.0
20260504225405 27 174 6.4 19.3 0.00 0.00 0.00 44 1003.0
20260504225305 27 174 6.4 19.3 0.00 0.00 0.00 43 1003.0
20260504225205 27 171 6.4 19.3 0.00 0.00 0.00 44 1003.0
20260504224805 27 165 6.4 19.3 0.00 0.00 0.00 44 1003.0
20260504224705 27 163 4.8 19.3 0.00 0.00 0.00 43 1003.0
20260504224505 27 156 4.8 19.3 0.00 0.00 0.00 43 1003.0
20260504224305 27 160 6.4 16.1 0.00 0.00 0.00 43 1002.9
20260504224205 27 162 6.4 16.1 0.00 0.00 0.00 44 1002.9
20260504224105 27 163 6.4 16.1 0.00 0.00 0.00 43 1002.9
20260504223805 27 165 6.4 16.1 0.00 0.00 0.00 44 1002.9
20260504223705 27 165 6.4 16.1 0.00 0.00 0.00 42 1002.9
20260504223605 27 164 6.4 16.1 0.00 0.00 0.00 43 1003.0
20260504223505 27 162 6.4 16.1 0.00 0.00 0.00 43 1003.0
20260504223405 27 159 6.4 16.1 0.00 0.00 0.00 42 1003.0
20260504223305 27 158 6.4 16.1 0.00 0.00 0.00 42 1002.9
20260504223205 28 162 6.4 17.7 0.00 0.00 0.00 42 1003.0
20260504223104 28 163 8.0 17.7 0.00 0.00 0.00 42 1002.9
20260504222905 28 175 8.0 24.1 0.00 0.00 0.00 43 1002.9
20260504222805 28 177 8.0 24.1 0.00 0.00 0.00 43 1003.0
20260504222705 28 181 8.0 24.1 0.00 0.00 0.00 42 1002.9
20260504222605 28 182 8.0 24.1 0.00 0.00 0.00 42 1002.9
20260504222505 28 183 8.0 24.1 0.00 0.00 0.00 42 1002.9
20260504222405 28 186 8.0 24.1 0.00 0.00 0.00 42 1002.8
20260504222305 28 187 8.0 24.1 0.00 0.00 0.00 42 1002.9
20260504222105 28 184 6.4 24.1 0.00 0.00 0.00 41 1002.7
20260504222005 28 181 6.4 24.1 0.00 0.00 0.00 41 1002.8
20260504221904 28 171 6.4 24.1 0.00 0.00 0.00 42 1002.9
20260504221805 28 168 6.4 24.1 0.00 0.00 0.00 42 1002.9
20260504221704 28 167 6.4 16.1 0.00 0.00 0.00 42 1002.9
20260504221604 28 166 6.4 16.1 0.00 0.00 0.00 42 1002.9
20260504221504 28 165 6.4 16.1 0.00 0.00 0.00 42 1002.9
20260504221405 28 168 8.0 16.1 0.00 0.00 0.00 41 1002.9
20260504221104 28 172 8.0 19.3 0.00 0.00 0.00 41 1002.9
20260504220904 28 176 8.0 19.3 0.00 0.00 0.00 41 1002.9
20260504220804 28 174 8.0 19.3 0.00 0.00 0.00 41 1002.9
20260504220704 28 171 8.0 19.3 0.00 0.00 0.00 41 1003.0
20260504220604 28 174 8.0 19.3 0.00 0.00 0.00 40 1002.9
20260504220504 28 175 8.0 19.3 0.00 0.00 0.00 39 1002.8
20260504220304 28 173 8.0 19.3 0.00 0.00 0.00 40 1002.9
20260504220204 28 173 8.0 20.9 0.00 0.00 0.00 39 1003.0
20260504220104 28 170 6.4 20.9 0.00 0.00 0.00 39 1003.0
20260504215904 29 168 6.4 20.9 0.00 0.00 0.00 40 1002.9
20260504215804 29 172 6.4 20.9 0.00 0.00 0.00 41 1003.0
20260504215604 29 171 8.0 20.9 0.00 0.00 0.00 39 1003.0
20260504215504 29 174 6.4 20.9 0.00 0.00 0.00 40 1003.0
20260504215305 29 171 6.4 20.9 0.00 0.00 0.00 40 1003.0
20260504215105 29 176 6.4 17.7 0.00 0.00 0.00 39 1003.0
20260504214904 29 175 6.4 17.7 0.00 0.00 0.00 40 1003.1
20260504214804 29 174 8.0 17.7 0.00 0.00 0.00 40 1003.1
20260504214704 29 171 8.0 17.7 0.00 0.00 0.00 40 1003.1
20260504214604 29 172 8.0 17.7 0.00 0.00 0.00 40 1003.1
20260504214405 29 165 8.0 19.3 0.00 0.00 0.00 40 1003.1
20260504214305 29 161 6.4 19.3 0.00 0.00 0.00 39 1003.1
20260504214104 29 161 6.4 19.3 0.00 0.00 0.00 39 1003.1
20260504214005 29 164 6.4 19.3 0.00 0.00 0.00 39 1003.0
20260504213804 29 169 8.0 19.3 0.00 0.00 0.00 40 1003.1
20260504213704 29 172 8.0 20.9 0.00 0.00 0.00 39 1003.1
20260504213604 29 174 8.0 20.9 0.00 0.00 0.00 40 1003.1
20260504213504 29 175 9.7 20.9 0.00 0.00 0.00 39 1003.2
20260504213305 29 181 9.7 20.9 0.00 0.00 0.00 38 1003.1
20260504213204 29 182 9.7 20.9 0.00 0.00 0.00 38 1003.2
20260504213104 29 181 9.7 20.9 0.00 0.00 0.00 38 1003.1
20260504212904 30 174 8.0 20.9 0.00 0.00 0.00 38 1003.1
20260504212804 30 173 8.0 20.9 0.00 0.00 0.00 37 1003.1
20260504212405 30 170 6.4 16.1 0.00 0.00 0.00 37 1003.1
20260504212305 30 170 6.4 16.1 0.00 0.00 0.00 36 1003.2
20260504212205 30 163 6.4 16.1 0.00 0.00 0.00 36 1003.1
20260504212104 30 162 6.4 16.1 0.00 0.00 0.00 37 1003.1
20260504212004 30 166 6.4 16.1 0.00 0.00 0.00 36 1003.2
20260504211905 30 163 4.8 16.1 0.00 0.00 0.00 35 1003.1
20260504211705 30 160 4.8 16.1 0.00 0.00 0.00 35 1003.2
20260504211604 30 162 4.8 16.1 0.00 0.00 0.00 36 1003.2
20260504211404 30 178 6.4 22.5 0.00 0.00 0.00 35 1003.2
20260504211304 30 186 6.4 22.5 0.00 0.00 0.00 36 1003.2
20260504211105 30 193 6.4 22.5 0.00 0.00 0.00 35 1003.2
20260504211004 30 192 6.4 22.5 0.00 0.00 0.00 34 1003.2
20260504210904 30 192 6.4 22.5 0.00 0.00 0.00 35 1003.2
20260504210804 30 194 6.4 22.5 0.00 0.00 0.00 34 1003.3
20260504210704 30 194 6.4 22.5 0.00 0.00 0.00 34 1003.3
20260504210504 30 191 4.8 22.5 0.00 0.00 0.00 32 1003.3
20260504210405 31 175 4.8 14.5 0.00 0.00 0.00 33 1003.3
20260504210304 31 164 4.8 11.3 0.00 0.00 0.00 33 1003.3
20260504210204 31 155 4.8 11.3 0.00 0.00 0.00 34 1003.3
20260504210104 31 152 4.8 11.3 0.00 0.00 0.00 34 1003.3
20260504210005 31 150 4.8 11.3 0.00 0.00 0.00 33 1003.3
20260504205904 31 147 4.8 9.7 0.00 0.00 0.00 34 1003.3
20260504205805 31 148 4.8 11.3 0.00 0.00 0.00 33 1003.4
20260504205604 31 144 4.8 11.3 0.00 0.00 0.00 33 1003.4
20260504205504 31 143 4.8 11.3 0.00 0.00 0.00 33 1003.4
20260504205404 31 143 3.2 11.3 0.00 0.00 0.00 33 1003.4
20260504205305 31 144 3.2 11.3 0.00 0.00 0.00 33 1003.4
20260504205205 31 147 4.8 11.3 0.00 0.00 0.00 34 1003.4
20260504205104 31 143 3.2 11.3 0.00 0.00 0.00 34 1003.4
20260504205005 31 144 3.2 11.3 0.00 0.00 0.00 34 1003.5
20260504204905 31 145 3.2 11.3 0.00 0.00 0.00 33 1003.4
20260504204804 31 140 3.2 9.7 0.00 0.00 0.00 33 1003.5
20260504204704 31 139 3.2 9.7 0.00 0.00 0.00 33 1003.5
20260504204604 31 140 3.2 9.7 0.00 0.00 0.00 32 1003.5
20260504204504 31 142 3.2 9.7 0.00 0.00 0.00 34 1003.5
20260504204404 31 151 3.2 9.7 0.00 0.00 0.00 34 1003.6
20260504204304 31 151 3.2 9.7 0.00 0.00 0.00 34 1003.5
20260504204204 31 150 3.2 9.7 0.00 0.00 0.00 33 1003.6
20260504204105 31 152 3.2 8.0 0.00 0.00 0.00 34 1003.5
20260504204004 31 154 3.2 8.0 0.00 0.00 0.00 34 1003.6
20260504203804 31 164 3.2 9.7 0.00 0.00 0.00 34 1003.6
20260504203704 31 169 3.2 9.7 0.00 0.00 0.00 34 1003.6
20260504203604 31 172 3.2 9.7 0.00 0.00 0.00 34 1003.6
20260504203504 31 174 3.2 11.3 0.00 0.00 0.00 33 1003.7
20260504203405 30 175 4.8 11.3 0.00 0.00 0.00 34 1003.6
20260504203104 30 179 4.8 17.7 0.00 0.00 0.00 34 1003.7
20260504203004 30 179 4.8 17.7 0.00 0.00 0.00 33 1003.7
20260504202904 30 182 4.8 17.7 0.00 0.00 0.00 34 1003.7
20260504202804 30 184 4.8 17.7 0.00 0.00 0.00 34 1003.7
20260504202704 30 183 4.8 17.7 0.00 0.00 0.00 34 1003.7
20260504202604 30 183 4.8 17.7 0.00 0.00 0.00 33 1003.8
20260504202404 30 179 4.8 17.7 0.00 0.00 0.00 34 1003.8
20260504202305 30 178 4.8 17.7 0.00 0.00 0.00 33 1003.8
20260504202204 30 178 4.8 17.7 0.00 0.00 0.00 35 1003.9
20260504202104 30 183 6.4 17.7 0.00 0.00 0.00 34 1004.0
20260504202004 30 185 4.8 17.7 0.00 0.00 0.00 34 1003.9
20260504201904 30 183 4.8 11.3 0.00 0.00 0.00 35 1003.9
20260504201604 30 188 6.4 11.3 0.00 0.00 0.00 34 1004.0
20260504201504 30 191 6.4 11.3 0.00 0.00 0.00 36 1004.0
20260504201404 30 189 6.4 11.3 0.00 0.00 0.00 35 1004.0
20260504201304 30 192 6.4 14.5 0.00 0.00 0.00 34 1004.1
20260504201204 30 194 6.4 14.5 0.00 0.00 0.00 35 1004.1
20260504200904 30 182 6.4 14.5 0.00 0.00 0.00 35 1004.1
20260504200805 30 177 6.4 14.5 0.00 0.00 0.00 34 1004.1
20260504200705 30 175 4.8 14.5 0.00 0.00 0.00 34 1004.1
20260504200505 30 163 4.8 14.5 0.00 0.00 0.00 36 1004.2
20260504200405 30 161 4.8 14.5 0.00 0.00 0.00 34 1004.2
20260504200305 30 153 4.8 12.9 0.00 0.00 0.00 35 1004.2
20260504200205 30 139 4.8 12.9 0.00 0.00 0.00 34 1004.2
20260504200105 30 124 3.2 11.3 0.00 0.00 0.00 34 1004.2
20260504195905 30 118 3.2 11.3 0.00 0.00 0.00 36 1004.3
20260504195805 30 114 3.2 11.3 0.00 0.00 0.00 37 1004.3
20260504195704 30 107 3.2 11.3 0.00 0.00 0.00 35 1004.3
20260504195604 30 105 3.2 11.3 0.00 0.00 0.00 36 1004.3
20260504195505 30 104 3.2 11.3 0.00 0.00 0.00 35 1004.4
20260504195404 30 105 3.2 11.3 0.00 0.00 0.00 37 1004.4
20260504195304 30 106 3.2 11.3 0.00 0.00 0.00 37 1004.4
20260504195204 30 111 3.2 9.7 0.00 0.00 0.00 36 1004.4
20260504195104 30 123 3.2 8.0 0.00 0.00 0.00 36 1004.4
20260504195005 30 132 3.2 8.0 0.00 0.00 0.00 36 1004.4
20260504194804 29 149 3.2 9.7 0.00 0.00 0.00 35 1004.5
20260504194704 29 166 3.2 14.5 0.00 0.00 0.00 36 1004.5
20260504194604 29 177 3.2 14.5 0.00 0.00 0.00 35 1004.6
20260504194504 29 182 3.2 14.5 0.00 0.00 0.00 36 1004.6
20260504194205 29 168 3.2 14.5 0.00 0.00 0.00 38 1004.6
20260504194104 29 160 3.2 14.5 0.00 0.00 0.00 38 1004.6
20260504193904 29 154 3.2 14.5 0.00 0.00 0.00 36 1004.6
20260504193804 29 149 3.2 14.5 0.00 0.00 0.00 37 1004.6
20260504193704 28 134 3.2 8.0 0.00 0.00 0.00 37 1004.6
20260504193605 28 141 3.2 11.3 0.00 0.00 0.00 37 1004.6
20260504193504 28 146 3.2 11.3 0.00 0.00 0.00 36 1004.6
20260504193305 28 163 3.2 11.3 0.00 0.00 0.00 38 1004.7
20260504193204 28 178 3.2 11.3 0.00 0.00 0.00 36 1004.7
20260504193104 28 188 4.8 11.3 0.00 0.00 0.00 38 1004.8
20260504193005 28 195 4.8 11.3 0.00 0.00 0.00 36 1004.8
20260504192905 28 195 4.8 11.3 0.00 0.00 0.00 38 1004.8
20260504192705 28 193 4.8 11.3 0.00 0.00 0.00 36 1004.9
20260504192604 28 191 4.8 11.3 0.00 0.00 0.00 37 1004.9
20260504192504 28 191 4.8 11.3 0.00 0.00 0.00 38 1004.9
20260504192305 28 189 4.8 11.3 0.00 0.00 0.00 36 1004.9
20260504192204 28 189 4.8 11.3 0.00 0.00 0.00 37 1004.9
20260504192104 28 194 4.8 11.3 0.00 0.00 0.00 37 1004.9
20260504191905 28 203 4.8 11.3 0.00 0.00 0.00 38 1005.0
20260504191805 28 204 4.8 11.3 0.00 0.00 0.00 39 1005.0
20260504191705 28 204 4.8 11.3 0.00 0.00 0.00 37 1005.0
20260504191605 28 200 4.8 11.3 0.00 0.00 0.00 37 1005.1
20260504191505 28 200 4.8 11.3 0.00 0.00 0.00 37 1005.1
20260504191404 28 202 3.2 11.3 0.00 0.00 0.00 38 1005.1
20260504191305 28 200 3.2 11.3 0.00 0.00 0.00 40 1005.1
20260504191205 28 192 3.2 11.3 0.00 0.00 0.00 37 1005.1
20260504191104 28 179 3.2 11.3 0.00 0.00 0.00 38 1005.1
20260504191004 28 166 3.2 8.0 0.00 0.00 0.00 39 1005.2
20260504190904 28 165 3.2 8.0 0.00 0.00 0.00 38 1005.2
20260504190804 28 163 3.2 8.0 0.00 0.00 0.00 38 1005.2
20260504190705 28 159 3.2 8.0 0.00 0.00 0.00 37 1005.2
20260504190604 28 159 3.2 8.0 0.00 0.00 0.00 38 1005.2
20260504190504 28 164 3.2 9.7 0.00 0.00 0.00 39 1005.2
20260504190404 28 165 3.2 9.7 0.00 0.00 0.00 40 1005.2
20260504190305 28 169 3.2 9.7 0.00 0.00 0.00 40 1005.3
20260504190205 28 171 3.2 9.7 0.00 0.00 0.00 38 1005.3
20260504190104 28 170 3.2 9.7 0.00 0.00 0.00 39 1005.3
20260504190004 28 167 3.2 9.7 0.00 0.00 0.00 41 1005.3
20260504185904 27 160 3.2 9.7 0.00 0.00 0.00 39 1005.3
20260504185804 27 157 3.2 9.7 0.00 0.00 0.00 39 1005.3
20260504185704 27 157 3.2 9.7 0.00 0.00 0.00 37 1005.3
20260504185505 28 146 3.2 8.0 0.00 0.00 0.00 40 1005.3
20260504185405 28 144 3.2 8.0 0.00 0.00 0.00 39 1005.3
20260504185305 28 140 1.6 8.0 0.00 0.00 0.00 40 1005.3
20260504185205 28 138 1.6 6.4 0.00 0.00 0.00 39 1005.2
20260504185104 28 139 1.6 8.0 0.00 0.00 0.00 37 1005.3
20260504185005 28 147 1.6 8.0 0.00 0.00 0.00 38 1005.2
20260504184904 28 153 1.6 8.0 0.00 0.00 0.00 39 1005.2
20260504184806 27 162 1.6 8.0 0.00 0.00 0.00 41 1005.3
20260504184704 27 168 1.6 8.0 0.00 0.00 0.00 41 1005.2
20260504184405 27 173 3.2 8.0 0.00 0.00 0.00 40 1005.4
20260504184305 27 171 3.2 8.0 0.00 0.00 0.00 39 1005.4
20260504184205 27 165 3.2 8.0 0.00 0.00 0.00 40 1005.5
20260504184104 27 161 3.2 6.4 0.00 0.00 0.00 38 1005.5
20260504183904 27 161 3.2 6.4 0.00 0.00 0.00 38 1005.5
20260504183804 27 160 3.2 6.4 0.00 0.00 0.00 39 1005.5
20260504183705 27 161 3.2 6.4 0.00 0.00 0.00 39 1005.5
20260504183604 27 163 3.2 6.4 0.00 0.00 0.00 40 1005.5
20260504183505 27 164 3.2 6.4 0.00 0.00 0.00 41 1005.5
20260504183404 27 165 3.2 6.4 0.00 0.00 0.00 41 1005.4
20260504183205 27 179 3.2 6.4 0.00 0.00 0.00 40 1005.4
20260504183105 27 181 4.8 8.0 0.00 0.00 0.00 41 1005.4
20260504183004 27 183 4.8 11.3 0.00 0.00 0.00 39 1005.5
20260504182705 27 188 3.2 11.3 0.00 0.00 0.00 41 1005.6
20260504182605 27 185 3.2 11.3 0.00 0.00 0.00 39 1005.6
20260504182504 27 182 3.2 11.3 0.00 0.00 0.00 40 1005.5
20260504182304 27 172 4.8 11.3 0.00 0.00 0.00 38 1005.6
20260504182204 27 167 4.8 11.3 0.00 0.00 0.00 38 1005.6
20260504182105 27 167 3.2 11.3 0.00 0.00 0.00 38 1005.5
20260504182004 27 159 3.2 11.3 0.00 0.00 0.00 39 1005.5
20260504181904 27 158 3.2 9.7 0.00 0.00 0.00 39 1005.5
20260504181605 27 168 3.2 9.7 0.00 0.00 0.00 39 1005.6
20260504181505 27 170 3.2 8.0 0.00 0.00 0.00 40 1005.7
20260504181404 27 174 3.2 8.0 0.00 0.00 0.00 40 1005.7
20260504181304 27 182 3.2 8.0 0.00 0.00 0.00 40 1005.7
20260504181204 27 185 1.6 8.0 0.00 0.00 0.00 42 1005.6
20260504181104 27 186 1.6 8.0 0.00 0.00 0.00 41 1005.7
20260504181004 27 198 1.6 8.0 0.00 0.00 0.00 39 1005.7
20260504180904 27 214 3.2 8.0 0.00 0.00 0.00 39 1005.7
20260504180804 27 224 3.2 8.0 0.00 0.00 0.00 40 1005.6
20260504180704 27 224 3.2 8.0 0.00 0.00 0.00 41 1005.6
20260504180604 27 211 3.2 11.3 0.00 0.00 0.00 42 1005.6
20260504180504 27 202 3.2 11.3 0.00 0.00 0.00 42 1005.7
20260504180404 27 197 3.2 11.3 0.00 0.00 0.00 41 1005.6
20260504180304 26 191 3.2 11.3 0.00 0.00 0.00 39 1005.6
20260504180204 26 188 3.2 11.3 0.00 0.00 0.00 40 1005.7
20260504180004 27 193 3.2 11.3 0.00 0.00 0.00 39 1005.7
20260504175904 27 178 3.2 11.3 0.00 0.00 0.00 40 1005.8
20260504175804 27 170 3.2 11.3 0.00 0.00 0.00 40 1005.8
20260504175704 27 169 3.2 11.3 0.00 0.00 0.00 39 1005.7
20260504175605 27 168 3.2 9.7 0.00 0.00 0.00 40 1005.7
20260504175505 27 173 3.2 8.0 0.00 0.00 0.00 39 1005.7
20260504175405 27 182 3.2 8.0 0.00 0.00 0.00 40 1005.7
20260504175305 27 195 3.2 8.0 0.00 0.00 0.00 40 1005.7
20260504175205 27 197 3.2 8.0 0.00 0.00 0.00 40 1005.8
20260504175105 27 192 3.2 8.0 0.00 0.00 0.00 41 1005.8
20260504175005 27 192 3.2 8.0 0.00 0.00 0.00 41 1005.9
20260504174804 27 194 4.8 8.0 0.00 0.00 0.00 41 1005.8
20260504174704 27 194 4.8 8.0 0.00 0.00 0.00 41 1005.8
20260504174604 26 193 4.8 8.0 0.00 0.00 0.00 41 1005.9
20260504174504 26 194 3.2 8.0 0.00 0.00 0.00 41 1005.9
20260504174405 26 189 3.2 8.0 0.00 0.00 0.00 42 1005.8
20260504174305 26 181 4.8 8.0 0.00 0.00 0.00 43 1005.8
20260504174205 26 182 4.8 9.7 0.00 0.00 0.00 42 1005.9
20260504174105 26 183 4.8 9.7 0.00 0.00 0.00 43 1006.0
20260504174005 26 189 3.2 9.7 0.00 0.00 0.00 41 1005.9
20260504173905 26 185 3.2 9.7 0.00 0.00 0.00 42 1006.0
20260504173705 26 186 4.8 9.7 0.00 0.00 0.00 43 1006.0
20260504173604 26 193 4.8 11.3 0.00 0.00 0.00 43 1006.0
20260504173405 26 190 4.8 11.3 0.00 0.00 0.00 42 1006.0
20260504173305 26 192 4.8 11.3 0.00 0.00 0.00 41 1006.0
20260504173205 26 199 4.8 11.3 0.00 0.00 0.00 43 1006.0
20260504173104 26 203 3.2 11.3 0.00 0.00 0.00 43 1006.0
20260504173005 26 199 3.2 11.3 0.00 0.00 0.00 44 1006.0
20260504172804 26 198 3.2 11.3 0.00 0.00 0.00 43 1006.0
20260504172704 26 195 3.2 11.3 0.00 0.00 0.00 41 1006.0
20260504172604 26 188 3.2 8.0 0.00 0.00 0.00 43 1006.0
20260504172404 26 202 3.2 8.0 0.00 0.00 0.00 43 1006.0
20260504172305 26 200 3.2 8.0 0.00 0.00 0.00 43 1006.0
20260504172205 26 193 3.2 8.0 0.00 0.00 0.00 44 1006.0
20260504172105 26 187 3.2 8.0 0.00 0.00 0.00 44 1006.0
20260504171904 25 182 3.2 9.7 0.00 0.00 0.00 43 1006.1
20260504171805 25 183 3.2 9.7 0.00 0.00 0.00 44 1006.1
20260504171705 25 183 4.8 9.7 0.00 0.00 0.00 44 1006.1
20260504171606 25 178 4.8 9.7 0.00 0.00 0.00 45 1006.1
20260504171504 25 179 4.8 11.3 0.00 0.00 0.00 45 1006.0
20260504171405 25 176 4.8 11.3 0.00 0.00 0.00 45 1006.0
20260504171305 25 178 4.8 11.3 0.00 0.00 0.00 44 1005.9
20260504171204 25 176 4.8 11.3 0.00 0.00 0.00 45 1005.9
20260504170904 25 178 4.8 11.3 0.00 0.00 0.00 46 1006.0
20260504170804 25 179 4.8 11.3 0.00 0.00 0.00 45 1006.0
20260504170705 25 182 4.8 11.3 0.00 0.00 0.00 44 1006.0
20260504170604 25 190 4.8 11.3 0.00 0.00 0.00 44 1006.0
20260504170504 25 190 4.8 11.3 0.00 0.00 0.00 44 1006.0
20260504170405 25 191 4.8 11.3 0.00 0.00 0.00 44 1006.0
20260504170304 25 190 3.2 11.3 0.00 0.00 0.00 46 1006.0
20260504170204 25 188 3.2 11.3 0.00 0.00 0.00 46 1006.1
20260504160404 22 201 8.0 16.1 0.00 0.00 0.00 49 1005.6
20260504160304 22 198 8.0 16.1 0.00 0.00 0.00 49 1005.7
20260504160205 22 196 8.0 16.1 0.00 0.00 0.00 49 1005.6
20260504160104 22 196 8.0 17.7 0.00 0.00 0.00 49 1005.6
20260504151104 21 189 8.0 25.7 0.00 0.00 0.00 52 1005.9
20260504151004 21 186 9.7 25.7 0.00 0.00 0.00 52 1005.9
20260504150904 21 189 8.0 25.7 0.00 0.00 0.00 52 1006.0
20260504150804 21 191 8.0 25.7 0.00 0.00 0.00 52 1006.0
20260504150604 21 195 8.0 19.3 0.00 0.00 0.00 51 1006.0
20260504150504 21 198 8.0 22.5 0.00 0.00 0.00 52 1006.0
20260504150304 21 197 9.7 22.5 0.00 0.00 0.00 52 1006.0
20260504150205 21 198 9.7 22.5 0.00 0.00 0.00 52 1006.0
20260504141304 19 194 9.7 29.0 0.00 0.00 0.00 55 1006.2
20260504141204 19 192 9.7 29.0 0.00 0.00 0.00 56 1006.3
20260504141104 19 190 9.7 29.0 0.00 0.00 0.00 55 1006.3
20260504141005 19 190 9.7 29.0 0.00 0.00 0.00 55 1006.3
20260504140905 19 190 9.7 29.0 0.00 0.00 0.00 55 1006.3
20260504140805 19 190 9.7 29.0 0.00 0.00 0.00 55 1006.4
20260504140705 19 190 9.7 29.0 0.00 0.00 0.00 55 1006.3
20260504140605 19 190 8.0 29.0 0.00 0.00 0.00 55 1006.3
20260504140405 19 185 8.0 19.3 0.00 0.00 0.00 56 1006.2
20260504140304 18 185 8.0 19.3 0.00 0.00 0.00 56 1006.2
20260504140204 18 184 8.0 19.3 0.00 0.00 0.00 57 1006.3
20260504140104 18 185 8.0 19.3 0.00 0.00 0.00 57 1006.3
20260504130805 17 186 4.8 14.5 0.00 0.00 0.00 59 1006.4
20260504130705 17 184 4.8 14.5 0.00 0.00 0.00 60 1006.4
20260504130605 17 182 4.8 14.5 0.00 0.00 0.00 60 1006.4
20260504130405 17 185 4.8 14.5 0.00 0.00 0.00 60 1006.4
20260504130305 17 183 4.8 14.5 0.00 0.00 0.00 60 1006.3
20260504130205 17 182 6.4 14.5 0.00 0.00 0.00 60 1006.3
20260504130105 17 187 6.4 20.9 0.00 0.00 0.00 61 1006.2
20260504120304 16 181 6.4 20.9 0.00 0.00 0.00 61 1005.9
20260504110705 16 169 4.8 17.7 0.00 0.00 0.00 57 1006.1
20260504110605 16 173 4.8 17.7 0.00 0.00 0.00 57 1006.2
20260504110505 16 173 6.4 17.7 0.00 0.00 0.00 57 1006.2
20260504110405 16 172 6.4 17.7 0.00 0.00 0.00 57 1006.2
20260504110305 16 173 6.4 17.7 0.00 0.00 0.00 57 1006.2
20260504110205 16 173 6.4 17.7 0.00 0.00 0.00 57 1006.2
20260504110104 16 174 6.4 17.7 0.00 0.00 0.00 57 1006.3
20260504100505 17 177 6.4 20.9 0.00 0.00 0.00 53 1006.6
20260504100405 17 183 6.4 24.1 0.00 0.00 0.00 53 1006.6